Location: Waco, TX
(31.5480°N, 97.1670°W)
Time: 16:17:50
(UTC-05:00)

ISS - Pass Details

Date: 19 June 2018
Orbit: 403 x 407 km, 51.6° (Epoch: 21 June)

Event Time Altitude Azimuth Distance (km) Brightness Sun altitude
Rises 10:33:11 0° 245° (WSW) 2,316 -0.3 50.2°
Reaches altitude 10° 10:35:25 10° 256° (WSW) 1,460 -1.3 50.7°
Maximum altitude 10:38:21 30° 320° (NW) 754 -2.4 51.3°
Drops below altitude 10° 10:41:19 10° 24° (NNE) 1,466 -0.7 51.9°
Sets 10:43:33 0° 36° (NE) 2,329 0.3 52.4°
